This is the latest recevied weather packets stored in our database for station/object N9OJR. If no packets are shown the sender has not sent any weather packets the latest 10 day(s).
| Time | Temp. | Humidity | Pressure | Rain* | Wind** | Luminosity | Snow |
|---|---|---|---|---|---|---|---|
| 1777296273 | 12.22° C | 79% | 1016.9 hPa | 0 mm | - | 402 W/m² | - |
| 1777295969 | 11.67° C | 81% | 1016.8 hPa | 0 mm | - | 354 W/m² | - |
| 1777295667 | 11.11° C | 81% | 1016.8 hPa | 0 mm | - | 300 W/m² | - |
| 1777295365 | 11.11° C | 82% | 1016.8 hPa | 0 mm | - | 317 W/m² | - |
| 1777295062 | 10.56° C | 83% | 1016.8 hPa | 0 mm | - | 301 W/m² | - |
| 1777294759 | 10.56° C | 83% | 1016.5 hPa | 0 mm | - | 268 W/m² | - |
| 1777294454 | 10.56° C | 86% | 1016.6 hPa | 0 mm | - | 259 W/m² | - |
| 1777294151 | 10° C | 86% | 1016.4 hPa | 0 mm | - | 261 W/m² | - |
| 1777293848 | 10° C | 86% | 1016.8 hPa | 0 mm | - | 288 W/m² | - |
| 1777293543 | 10° C | 85% | 1016.5 hPa | 0 mm | - | 268 W/m² | - |
| 1777293239 | 9.44° C | 87% | 1016.8 hPa | 0 mm | - | 339 W/m² | - |
| 1777292938 | 8.89° C | 88% | 1017 hPa | 0 mm | - | 156 W/m² | - |
| 1777292634 | 8.89° C | 89% | 1017 hPa | 0 mm | - | 131 W/m² | - |
| 1777292330 | 8.33° C | 90% | 1016.8 hPa | 0 mm | - | 117 W/m² | - |
| 1777292026 | 8.33° C | 91% | 1016.8 hPa | 0 mm | - | 99 W/m² | - |
| 1777291723 | 8.33° C | 91% | 1017 hPa | 0 mm | - | 85 W/m² | - |
| 1777291420 | 8.33° C | 91% | 1017.2 hPa | 0 mm | - | 79 W/m² | - |
| 1777291117 | 7.78° C | 91% | 1017.1 hPa | 0 mm | - | 75 W/m² | - |
| 1777290813 | 7.78° C | 93% | 1017.1 hPa | 0 mm | - | 72 W/m² | - |
| 1777290510 | 7.78° C | 93% | 1017.2 hPa | 0 mm | - | 67 W/m² | - |
| 1777290206 | 7.22° C | 93% | 1017.2 hPa | 0 mm | - | 62 W/m² | - |
| 1777289903 | 7.22° C | 93% | 1017 hPa | 0 mm | - | 56 W/m² | - |
| 1777289599 | 7.22° C | 94% | 1017 hPa | 0 mm | - | 51 W/m² | - |
| 1777289295 | 6.67° C | 94% | 1017 hPa | 0 mm | - | 46 W/m² | - |
| 1777288991 | 6.67° C | 95% | 1017 hPa | 0 mm | - | 41 W/m² | - |
* Rain latest hour (hover to see other rain measurements)
** Current wind speed in m/s (hover to see current wind gust speed)